Hanford, WA
on Tuesday, December 4, 2012

Tuesday
Previous Day Next Day
Daily Summary
 ActualAverage (KMWH)Record (KMWH)
Temperature
Mean Temperature °F 31°F  
Max Temperature 59°F 37°F 60°F (2007)
Min Temperature 42°F 25°F 3°F (2005)
Degree Days
Heating Degree Days 14 34  
Month to date heating degree days 135  
Since 1 July heating degree days 1596  
Cooling Degree Days 0 0  
Month to date cooling degree days 0  
Year to date cooling degree days 615  
Moisture
Dew Point 45°F   
Average Humidity 80    
Maximum Humidity 99    
Minimum Humidity 60    
Precipitation
Precipitation 0.09 in 0.04 in 0.31 in (1980)
Month to date precipitation 0.15  
Year to date precipitation 7.82  
Wind
Wind Speed 12 mph   
Max Wind Speed 24 mph   
Max Gust Speed 30 mph   
Visibility 15 miles   
Events Rain   

Key: T is trace of precipitation, MM is missing value
Source: NWS Daily Summary
Time(PST)TemperatureDew PointHumidity Pressure Visibility Wind DirectionWind SpeedGust SpeedPrecipitationEvents Conditions
12:50 AM 48.4°F 35.1°F 60% 29.77 in 15.0 miles ESE 11.5 mph - N/A   Overcast
1:50 AM 48.0°F 39.6°F 73% 29.75 in 15.0 miles South 18.4 mph 29.9 mph 0.01 in Rain Light Rain
2:50 AM 44.8°F 42.4°F 91% 29.75 in 12.0 miles SSE 5.8 mph - 0.02 in Rain Light Rain
3:50 AM 44.4°F 43.7°F 97% 29.74 in 10.0 miles East 13.8 mph - 0.05 in Rain Light Rain
4:50 AM 44.8°F 43.9°F 97% 29.72 in 15.0 miles SE 5.8 mph - 0.01 in   Overcast
5:50 AM 43.9°F 43.5°F 99% 29.72 in 15.0 miles ENE 4.6 mph - N/A   Overcast
6:50 AM 42.4°F 41.2°F 95% 29.73 in 15.0 miles ESE 4.6 mph - N/A   Overcast
7:50 AM 42.1°F 41.7°F 99% 29.74 in 15.0 miles NNW 3.5 mph - N/A   Overcast
8:50 AM 45.0°F 43.0°F 93% 29.76 in 15.0 miles North 3.5 mph - N/A   Overcast
9:50 AM 45.1°F 44.2°F 97% 29.78 in 15.0 miles North 9.2 mph - N/A   Mostly Cloudy
10:50 AM 50.2°F 47.1°F 89% 29.78 in 15.0 miles East 6.9 mph - N/A   Overcast
11:50 AM 58.1°F 47.1°F 67% 29.75 in 15.0 miles South 20.7 mph - N/A   Overcast
12:50 PM 57.0°F 47.8°F 71% 29.75 in 15.0 miles South 24.2 mph 29.9 mph N/A   Overcast
1:50 PM 59.2°F 47.1°F 64% 29.74 in 15.0 miles South 21.9 mph 27.6 mph N/A   Overcast
2:50 PM 59.0°F 46.9°F 64% 29.73 in 15.0 miles South 23.0 mph - N/A   Overcast
3:50 PM 57.9°F 46.6°F 66% 29.73 in 15.0 miles SSE 18.4 mph - N/A   Overcast
4:50 PM 57.9°F 46.8°F 66% 29.73 in 15.0 miles SSE 17.3 mph - N/A   Overcast
5:50 PM 56.5°F 47.1°F 71% 29.73 in 15.0 miles South 13.8 mph - N/A   Overcast
6:50 PM 57.2°F 46.6°F 68% 29.72 in 15.0 miles SW 15.0 mph - N/A Rain Light Rain
10:50 PM 53.1°F 46.6°F 79% 29.71 in 15.0 miles SSW 12.7 mph - N/A   Overcast
11:50 PM 53.2°F 46.8°F 79% 29.71 in 15.0 miles SSW 8.1 mph - N/A   Mostly Cloudy
Moon Phase
Dec. 04 Dec. 06 Dec. 13 Dec. 20 Dec. 28
Sunrise:07:25 AM (PST) Moon Rise:10:18 PM (PST)12/4
Sunset:04:11 PM (PST) Moon Set:11:09 AM (PST)12/4

Copyright © 2014 The Weather Underground, Inc.